Regional Weather Roundup
Issued by NWS

Home | Current Version | Previous Version | Graphics & Text | Print | Product List | Glossary On
Versions: 1 2 3 4 5 6 7 8 9 10 11 12 13 14 15 16 17 18 19 20 21 22 23 24 25 26 27 28 29 30 31 32 33 34 35 36 37 38 39 40 41 42 43 44 45 46 47 48 49 50
000
ASUS43 KDTX 281501
RWRMI
MICHIGAN HOURLY REGIONAL WEATHER ROUNDUP
NATIONAL WEATHER SERVICE DETROIT/PONTIAC MI
1100 AM EDT THU MAY 28 2015

NOTE: "FAIR" INDICATES FEW OR NO CLOUDS BELOW 12,000 FEET WITH NO
SIGNIFICANT WEATHER AND/OR OBSTRUCTION TO VISIBILITY.

MIZ047>049-052>055-059>063-066>070-074>076-081>083-281600-
SOUTHEAST LOWER MICHIGAN

CITY           SKY/WX    TMP DP  RH WIND       PRES   REMARKS
ADRIAN         SUNNY     70  57  63 SE8       30.26R
ALMA           SUNNY     72  60  64 S9        30.22S
ANN ARBOR      SUNNY     72  57  59 S7        30.26R
BAD AXE        SUNNY     71  54  54 W8        30.23S
CARO           SUNNY     73  56  55 W5        30.23S
DETROIT CITY   SUNNY     71  55  56 SE7       30.25S
DETROIT        SUNNY     73  55  53 SE6       30.26R
FLINT          SUNNY     75  55  49 SW5       30.24R
GROSSE ILE     SUNNY     66  59  77 S7        30.25R
HILLSDALE      SUNNY     73  52  46 SE7       30.26R
HOWELL         SUNNY     73  52  47 S3        30.25R

CITY           SKY/WX    TMP DP  RH WIND       PRES   REMARKS
JACKSON        SUNNY     72  54  53 VRB5      30.25R
LAMBERTVILLE   SUNNY     72  55  56 SE7       30.26R
LANSING        SUNNY     73  57  57 VRB5      30.24S
LAPEER         FAIR      72  53  51 CALM      30.25R
MASON          SUNNY     70  55  59 CALM      30.25S
MONROE         SUNNY     70  61  73 S8        30.25R
MT. CLEMENS    SUNNY     69  55  62 E7        30.24R
PONTIAC        SUNNY     72  56  57 CALM      30.25R
PORT HOPE        N/A     70  53  54 VRB3      30.21S
PORT HURON     SUNNY     70  55  60 S5        30.25S
TRI CITIES     PTSUNNY   73  57  57 S12       30.22F
MIDLAND        FAIR      73  57  56 SW9       30.21S
TROY           SUNNY     73  54  51 SE5       30.27R
SAGINAW HB     SUNNY     72  55  56 S9        30.22S
$$
MIZ043>046-050>051-056>058-064>065-071>073-077>080-281600-
SOUTHWEST LOWER MICHIGAN

CITY           SKY/WX    TMP DP  RH WIND       PRES   REMARKS
BATTLE CREEK   SUNNY     72  55  55 S6        30.26R
BENTON HARBOR  SUNNY     72  57  59 S8        30.24R
BIG RAPIDS     SUNNY     72  56  57 CALM      30.20S
COLDWATER      SUNNY     72  57  58 SE6       30.25S
FREMONT        FAIR      71  59  67 S3        30.20S
HOLLAND        SUNNY     73  59  61 SW6       30.24R
GRAND RAPIDS   SUNNY     73  58  59 S7        30.23S
IONIA          FAIR      74  56  54 SW7       30.23R
KALAMAZOO      SUNNY     72  56  57 SE6       30.25R
LUDINGTON      SUNNY     73  62  68 CALM      30.18S
MARSHALL       SUNNY     72  54  54 S3        30.25S
MOUNT PLEASANT SUNNY     72  58  62 S7        30.21S
MUSKEGON       SUNNY     71  55  56 SW12      30.22R
SOUTH HAVEN    SUNNY     70  58  66 W8        30.24R
$$
MIZ016>042-281600-
NORTHERN LOWER MICHIGAN

CITY           SKY/WX    TMP DP  RH WIND       PRES   REMARKS
ALPENA         SUNNY     73  56  54 CALM      30.19F
BEAVER ISLAND  SUNNY     63  52  68 CALM      30.18F
BELLAIRE       SUNNY     69  55  62 S5        30.18F
CADILLAC       SUNNY     74  57  55 W3        30.19S
FRANKFORT      SUNNY     71  54  55 CALM      30.17S
GAYLORD        SUNNY     69  57  65 W3        30.19F
GRAYLING       SUNNY     71  57  60 CALM      30.20S
HARBOR SPRINGS SUNNY     56  52  85 SW3       30.19F
HOUGHTON LAKE  SUNNY     68  57  68 W5        30.21S
MANISTEE       SUNNY     72  55  56 SE5       30.19S
OSCODA         SUNNY     74  56  55 SW7       30.19F
PELLSTON       SUNNY     68  56  65 N3        30.19S
ROGERS CITY    SUNNY     58  54  86 N5        30.22S
TRAVERSE CITY  SUNNY     72  56  57 CALM      30.16F
$$
MIZ007>008-015-281600-
EASTERN UPPER MICHIGAN

CITY           SKY/WX    TMP DP  RH WIND       PRES   REMARKS
KINROSS        SUNNY     63  57  82 E6        30.18F
MACKINAC ISLAN SUNNY     58  54  85 SW3       30.19S
NEWBERRY       PTSUNNY   56  56  98 CALM      30.18F
S. S. MARIE    CLOUDY    63  55  75 E7        30.18F
$$
MIZ004>006-011>014-085-281600-
CENTRAL UPPER MICHIGAN

CITY           SKY/WX    TMP DP  RH WIND       PRES   REMARKS
MANISTIQUE     MOSUNNY   57  53  84 SE6       30.18S
ESCANABA       SUNNY     63  54  72 E5        30.15S
MENOMINEE      SUNNY     61  52  72 E7        30.16R
SAWYER-GWINN   SUNNY     54  48  82 CALM      30.18F
$$
MIZ001>003-009>011-084-281600-
WESTERN UPPER MICHIGAN

CITY           SKY/WX    TMP DP  RH WIND       PRES   REMARKS
IRON MOUNTAIN  SUNNY     64  57  78 SE5       30.15S
HOUGHTON       CLOUDY    45  43  93 E14G22    30.16S FOG
COPPER HARBOR    N/A     48  43  82 SE9       30.19S
IRONWOOD       SUNNY     68  61  77 CALM      30.06F
$$

ABBREVIATIONS USED IN REMARKS
   TC - TEMPERATURE IN CELSIUS
  WCI - WIND CHILL INDEX
   HX - HEAT INDEX
  VSB - VISIBILITY



USA.gov is the U.S. government's official web portal to all federal, state and local government web resources and services.